Khon Kaen, Thailand

12:03 PM ICT on January 23, 2017 (GMT +0700)
Khon Kaen

Weather History for VTUK - October, 2013

Change the Weather History Date:

Wednesday, October 2, 2013

  Actual Average Record
Temperature  
Mean Temperature 82 °F -  
Max Temperature 90 °F 89 °F - ()
Min Temperature 74 °F 72 °F - ()
Cooling Degree Days 17    
Growing Degree Days 32 (Base 50)    
Moisture  
Dew Point 76 °F    
Average Humidity 90    
Maximum Humidity 100    
Minimum Humidity 54    
Precipitation  
Precipitation 0.31 in 0.13 in - ()
Sea Level Pressure  
Sea Level Pressure 29.85 in    
Wind  
Wind Speed 5 mph ()    
Max Wind Speed 10 mph    
Max Gust Speed -    
Visibility 6.1 miles    
Events Rain    
T = Trace of Precipitation, MM = Missing Value Source: Averaged Metar Reports

Daily Weather History Graph

Daily Weather History Graph

Search for Another Location

Airport or City:

Trip Planner

Search our weather history database for the weather conditions in past years. The results will help you decide how hot, cold, wet, or windy it might be!

Date:

Astronomy

Oct. 02, 2013 Rise Set
Actual Time 5:58 AM ICT 5:57 PM ICT
Civil Twilight 5:37 AM ICT 6:18 PM ICT
Nautical Twilight 5:12 AM ICT 6:43 PM ICT
Astronomical Twilight 4:47 AM ICT 7:08 PM ICT
Moon 3:22 AM ICT (10/2) 3:58 PM ICT (10/2)
Length of Visible Light 12h 41m
Length of Day
11h 58m
Waning Crescent, 9% of the Moon is Illuminated
Oct 2
Waning Crescent
Oct 5
New
Oct 12
First Quarter
Oct 19
Full
Oct 27
Last Quarter

Hourly Weather History & Observations

Time (ICT) Temp. Heat Index Dew Point Humidity Pressure Visibility Wind Dir Wind Speed Gust Speed Precip Events Conditions
12:00 AM 77.0 °F - 75.2 °F 94% 29.86 in 6.2 mi North 4.6 mph - N/A   Mostly Cloudy
1:00 AM 77 °F - 74 °F 90% 29.85 in 6 mi Calm Calm - -   Scattered Clouds
1:00 AM 75.2 °F - 75.2 °F 100% 29.86 in 6.2 mi North 4.6 mph - N/A   Scattered Clouds
4:00 AM 77.0 °F - 77.0 °F 100% 29.83 in 6.2 mi NE 8.1 mph - N/A   Mostly Cloudy
5:00 AM 75.2 °F - 73.4 °F 94% 29.83 in 6.2 mi NNE 9.2 mph - N/A   Mostly Cloudy
6:00 AM 75.2 °F - 75.2 °F 100% 29.86 in 5.6 mi North 6.9 mph - N/A   Mostly Cloudy
7:00 AM 76 °F - 74 °F 94% 29.86 in 6 mi Calm Calm - -   Mist
7:00 AM 75.2 °F - 75.2 °F 100% 29.86 in 5.6 mi North 3.5 mph - N/A   Mostly Cloudy
8:00 AM 80.6 °F 87.1 °F 77.0 °F 89% 29.89 in 6.2 mi North 6.9 mph - N/A   Mostly Cloudy
9:00 AM 82.4 °F 90.9 °F 77.0 °F 84% 29.92 in 6.2 mi North 9.2 mph - N/A   Scattered Clouds
10:00 AM 84.2 °F 94.1 °F 77.0 °F 79% 29.92 in 6.2 mi NNE 8.1 mph - N/A   Mostly Cloudy
11:00 AM 84.2 °F 94.1 °F 77.0 °F 79% 29.89 in 6.2 mi ENE 8.1 mph - N/A   Mostly Cloudy
12:00 PM 86.0 °F 96.9 °F 77.0 °F 74% 29.86 in 6.2 mi NNE 8.1 mph - N/A   Mostly Cloudy
1:00 PM 89 °F - 75 °F 54% 29.81 in 6 mi ENE 10.4 mph - -   Partly Cloudy
1:00 PM 87.8 °F 99.7 °F 77.0 °F 70% 29.83 in 6.2 mi NE 5.8 mph - N/A   Mostly Cloudy
2:00 PM 89.6 °F 102.2 °F 77.0 °F 66% 29.80 in 6.2 mi East 8.1 mph - N/A   Scattered Clouds
3:00 PM 78.8 °F - 77.0 °F 94% 29.77 in 5.0 mi ENE 9.2 mph - N/A Rain Light Rain
4:00 PM 78.8 °F - 78.8 °F 100% 29.77 in 6.2 mi NNW 3.5 mph - N/A Rain Light Rain
5:00 PM 80.6 °F 88.1 °F 78.8 °F 94% 29.77 in 6.2 mi Variable 2.3 mph - N/A   Mostly Cloudy
6:00 PM 78.8 °F - 78.8 °F 100% 29.80 in 6.2 mi Variable 2.3 mph - N/A Rain Rain
7:00 PM 79 °F - 77 °F 93% 29.81 in 6 mi Calm Calm - - Rain Light Rain
7:00 PM 77.0 °F - 77.0 °F 100% 29.83 in 6.2 mi Variable 2.3 mph - N/A   Overcast
8:00 PM 77.0 °F - 77.0 °F 100% 29.86 in 6.2 mi Calm Calm - N/A   Overcast
9:00 PM 78.8 °F - 77.0 °F 94% 29.89 in 6.2 mi NE 6.9 mph - N/A   Overcast
10:00 PM 78.8 °F - 77.0 °F 94% 29.92 in 6.2 mi NNE 5.8 mph - N/A   Mostly Cloudy
11:00 PM 77.0 °F - 77.0 °F 100% 29.92 in 6.2 mi Variable 1.2 mph - N/A   Mostly Cloudy